Quillayute, WA
on Saturday, January 12, 2013

Saturday
Previous Day Next Day
Daily Summary
 ActualAverageRecord
Temperature
Mean Temperature °F 42°F  
Max Temperature 41°F 47°F 65°F (1986)
Min Temperature 26°F 36°F 17°F (2007)
Degree Days
Heating Degree Days 31 24  
Month to date heating degree days 288  
Since 1 July heating degree days 2766  
Cooling Degree Days 0 0  
Month to date cooling degree days 0  
Year to date cooling degree days 0  
Moisture
Dew Point 26°F   
Average Humidity 81    
Maximum Humidity 92    
Minimum Humidity 45    
Precipitation
Precipitation 0.00 in 0.50 in 2.29 in (2006)
Month to date precipitation 5.77  
Year to date precipitation 5.77  
Wind
Wind Speed 2 mph   
Max Wind Speed 8 mph   
Max Gust Speed 13 mph   
Visibility 6 miles   
Events     

Key: T is trace of precipitation, MM is missing value
Source: NWS Daily Summary
Time(PST)TemperatureDew PointHumidity Pressure Visibility Wind DirectionWind SpeedGust SpeedPrecipitationEvents Conditions
12:53 AM 28.0°F 26.1°F 92% 30.31 in 6.0 miles East 4.6 mph - N/A   Mostly Cloudy
1:53 AM 28.0°F 26.1°F 92% 30.31 in 6.0 miles East 5.8 mph - N/A   Partly Cloudy
2:53 AM 28.0°F 25.0°F 88% 30.32 in 6.0 miles Calm Calm - N/A   Mostly Cloudy
3:53 AM 28.9°F 27.0°F 92% 30.32 in 6.0 miles Calm Calm - N/A   Overcast
4:53 AM 30.0°F 27.0°F 88% 30.32 in 6.0 miles Calm Calm - N/A   Overcast
5:20 AM 30.2°F 26.6°F 86% 30.31 in 6.0 miles Calm Calm - N/A   Overcast
5:38 AM 30.2°F 26.6°F 86% 30.32 in 6.0 miles Calm Calm - N/A   Overcast
5:53 AM 28.9°F 26.1°F 89% 30.32 in 6.0 miles Calm Calm - N/A   Overcast
6:53 AM 28.0°F 25.0°F 88% 30.33 in 6.0 miles Calm Calm - N/A   Partly Cloudy
7:24 AM 28.4°F 24.8°F 86% 30.33 in 6.0 miles Calm Calm - N/A   Mostly Cloudy
7:53 AM 27.0°F 25.0°F 92% 30.35 in 6.0 miles Calm Calm - N/A   Mostly Cloudy
8:04 AM 28.4°F 24.8°F 86% 30.35 in 6.0 miles Calm Calm - N/A   Partly Cloudy
8:53 AM 28.9°F 26.1°F 89% 30.36 in 5.0 miles Calm Calm - N/A   Clear
9:53 AM 30.9°F 27.0°F 85% 30.37 in 5.0 miles Calm Calm - N/A   Clear
10:53 AM 37.0°F 28.9°F 73% 30.39 in 5.0 miles Calm Calm - N/A   Haze
11:53 AM 39.0°F 28.0°F 65% 30.38 in 5.0 miles North 4.6 mph - N/A   Haze
12:53 PM 41.0°F 26.1°F 55% 30.38 in 5.0 miles North 6.9 mph - N/A   Haze
1:53 PM 41.0°F 24.1°F 51% 30.37 in 5.0 miles NE 6.9 mph - N/A   Haze
2:53 PM 41.0°F 23.0°F 49% 30.37 in 5.0 miles North 4.6 mph - N/A   Haze
3:53 PM 37.9°F 24.1°F 57% 30.39 in 5.0 miles North 5.8 mph - N/A   Haze
4:53 PM 33.1°F 27.0°F 78% 30.38 in 5.0 miles Calm Calm - N/A   Haze
5:53 PM 30.0°F 27.0°F 88% 30.39 in 6.0 miles Calm Calm - N/A   Clear
6:53 PM 30.0°F 26.1°F 85% 30.41 in 6.0 miles North 4.6 mph - N/A   Clear
7:53 PM 28.0°F 26.1°F 92% 30.42 in 6.0 miles Calm Calm - N/A   Clear
8:53 PM 26.1°F 24.1°F 92% 30.41 in 6.0 miles Calm Calm - N/A   Clear
9:53 PM 27.0°F 25.0°F 92% 30.43 in 5.0 miles Calm Calm - N/A   Clear
10:53 PM 28.0°F 26.1°F 92% 30.43 in 6.0 miles Calm Calm - N/A   Overcast
11:53 PM 28.0°F 26.1°F 92% 30.43 in 5.0 miles ENE 5.8 mph - N/A   Partly Cloudy
Moon Phase
Jan. 12 Jan. 18 Jan. 26 Feb. 03 Feb. 10
Sunrise:08:04 AM (PST) Moon Rise:08:19 AM (PST)1/12
Sunset:04:49 PM (PST) Moon Set:06:35 PM (PST)1/12

Copyright © 2014 The Weather Underground, Inc.